STARLINK-34183, 64254

Orbit data source: Space-Track

STARLINK-34183, 64254 is a payload satellite owned by SpaceX/Seattle (US) in LEO that was launched on Tue, 03 Jun 2025 UTC via an FALCON 9 launch vehicle from the Air Force Eastern Test Range (AFETR). Payload-class satellites include a variety of spacecraft equipped with specific instruments for various scientific and technological missions. These include communications satellites like Starlink; space stations such as the ISS; scientific satellites like the Hubble; Earth observation satellites from companies like Planet Labs, Umbra, and HawkEye 360; GPS; miniature CubeSats for education and research; and military/defense satellites.

Loading next visibility...
Identifier
64254, 2025-119X
Orbit
LEO
Country
Flag of USUS
Related business
Manufacturer
SpaceX/Seattle
Mission
Operational Commercial Communications
Bus & Motor
STARLINK V2MO, Unknown motor
Mass
575 kg wet, ~530 kg dry
Launch date (UTC)
2025-06-03 (1 year ago)
Launch vehicle
FALCON 9
Launch site
Air Force Eastern Test Range (AFETR)
Object type
Payload
Rocket body
Debris
Shape & HBR
Box + 2 Pan, 17.7 m
Radar Cross Section
36.964 m², Large (>1 m²)

Expand to show TLE details & history
Last TLE update: 17 hours ago

TLE from 17 hours ago
0 STARLINK-34183
1 64254U 25119X   26171.13831525  .00019678  00000-0  72183-3 0  9999
2 64254  43.0002  88.8077 0001390 267.6192  92.4500 15.27620034 59831
Epoch: 2026-06-20T03:19Z
TLE epoch observation values (Epoch: 2026-06-20T03:19:10.437Z)
Latitude
-0.00006°
Longitude
130.65691°
Altitude
482.746 km
Speed
7.626 km/s
True Right ascension
05h 55m 13s
True Declination
0° 00' 00"
Sunlit
Object was in daylight at epoch
Visualization orbit readout
Latitude
Unknown
Longitude
Unknown
Altitude
Unknown
Speed
Unknown
Apparent Right ascension
Unknown
Apparent Declination
Unknown
Sunlit
N/A
Visualization observer readout
Local Sidereal Time
07:14:12
Azimuth
Unknown
Elevation
Unknown
Doppler factor
Unknown
Orbital elements
Apogee altitude
485.828 km
Perigee altitude
483.92 km
Semi-major axis
6,863.011 km
Eccentricity
0.00014
Inclination
43.0002°
RAAN
88.8077°
Arg. of periapsis
267.6192°
True anomaly
92.46591°
Mean anomaly
92.45°
Eccentric anomaly
92.45796°
Mean motion
3.81743 °/min
Orbital period
94.3 mins
BSTAR
0.00072183
Loading maneuver chart data...
Computing Atmospheric mass density...
Loading historical data...
Loading historical data...
Loading historical data...
Loading historical data...
Loading historical data...
Loading historical data...
Loading historical data...

Documentation

Showing up to 5 results
|